User: anonymous   Login
Location: Asheville, NC
(35.6000°N, 82.5500°W)
Time: 14:02:46
(UTC-05:00)
Language:

SO-50 - Orbit

View from above orbital plane
View from above orbital plane
View from above satellite
View from above satellite

Ground track
Ground track

The orbit data is extracted from the following two-line orbital elements,

1 27607U 02058C   18018.89240310 -.00000035 +00000-0 +15581-4 0  9995
2 27607 064.5540 186.3564 0047066 005.5728 354.5887 14.75412811810802
Epoch (UTC): 18 January 2018 21:25:03
Eccentricity: 0.0047066
inclination: 64.5540°
perigee height: 611 km
apogee height: 677 km
right ascension of ascending node: 186.3564°
argument of perigee: 5.5728°
revolutions per day: 14.75412811
mean anomaly at epoch: 354.5887°
orbit number at epoch: 81080

The dashed part of the orbit path shows where the satellite is in the earth's shadow,  

DLR